Flag for Switzerland Weather past 2 weeks in Winterthur, Switzerland

Now
77 °F

Scattered clouds.


Feels Like: 79 °F
Forecast: 53 / 77 °F
Wind: 7 mph from Southeast

Location: Zurich-Kloten

Current Time: Jul 24, 2014 at 3:05:38 PM

Latest Report: Jul 24, 2014 at 2:20 PM


Visibility: N/A

Pressure: 29.92 "Hg

Humidity: 57%

Dew point: 61 °F

Location of WinterthurLocation

Historic Weather in Winterthur — Graph

°F

Winterthur temperature yesterday

Maximum temperature yesterday: 79 °F (at 6:20 PM)
Minimum temperature yesterday: 61 °F (at 5:20 AM)
Average temperature yesterday: 70 °F

Past Weeks' High & Low Weather Summary

 TemperatureHumidityPressure
High93 °F (Jul 19, 6:50 PM)100% (Jul 10, 11:50 PM)30.21 "Hg (Jul 10, 11:50 PM)
Low50 °F (Jul 10, 3:20 AM)25% (Jul 18, 4:50 PM)29.83 "Hg (Jul 10, 3:20 AM)
Average66 °F78%30.00 "Hg
* Reported Jul 9 2:50 PM — Jul 24 1:50 PM, Winterthur, Weather by CustomWeather, © 2014

Note: Actual official high and low records may vary slightly from our data, if they occured in-between our weather recording intervals... More about our weather records

Advertising

Winterthur weather history for previous 24 hours

 ConditionsComfort  
Time TempWeatherWind HumidityBarometerVisibility
1:50 PM
Jul 24
77 °FScattered clouds.3 mph54%29.92 "HgN/A
1:20 PM75 °FPassing clouds.6 mph54%29.92 "HgN/A
12:50 PM75 °FScattered clouds.3 mph61%29.92 "HgN/A
12:20 PM73 °FScattered clouds.5 mph61%29.92 "HgN/A
11:50 AM73 °FSunny.2 mph61%29.92 "Hg10 mi
11:20 AM72 °FPassing clouds.5 mph65%29.92 "HgN/A
10:50 AM72 °FPassing clouds.3 mph65%29.92 "HgN/A
10:20 AM70 °FPassing clouds.3 mph64%29.92 "HgN/A
9:50 AM68 °FPassing clouds.3 mph64%29.92 "HgN/A
9:20 AM66 °FSunny.2 mph68%29.92 "Hg10 mi
8:50 AM66 °FPassing clouds.3 mph68%29.92 "HgN/A
8:20 AM64 °FPassing clouds.5 mph73%29.89 "HgN/A
7:50 AM64 °FSunny.3 mph73%29.89 "Hg10 mi
7:20 AM63 °FSunny.1 mph83%29.89 "Hg10 mi
6:50 AM59 °FClear.No wind88%29.89 "Hg10 mi
6:20 AM59 °FClear.1 mph88%29.89 "Hg10 mi
5:50 AM59 °FClear.2 mph88%29.89 "Hg10 mi
5:20 AM59 °FPassing clouds.5 mph88%29.89 "HgN/A
4:50 AM59 °FClear.5 mph88%29.89 "Hg10 mi
4:20 AM59 °FClear.6 mph88%29.89 "Hg10 mi
3:50 AM61 °FPassing clouds.3 mph83%29.86 "HgN/A
3:20 AM59 °FPassing clouds.5 mph88%29.89 "HgN/A
2:50 AM57 °FClear.6 mph94%29.89 "Hg10 mi
1:50 AM61 °FClear.1 mph83%29.89 "Hg10 mi
1:20 AM63 °FClear.5 mph77%29.89 "Hg10 mi
12:50 AM63 °FClear.6 mph77%29.89 "Hg10 mi
12:20 AM64 °FClear.8 mph78%29.92 "Hg10 mi
11:50 PM
Jul 23
64 °FClear.6 mph78%29.92 "Hg10 mi
11:20 PM68 °FClear.6 mph69%29.92 "Hg10 mi
10:50 PM68 °FPassing clouds.5 mph69%29.92 "HgN/A
10:20 PM72 °FPassing clouds.5 mph57%29.92 "HgN/A
9:50 PM72 °FPassing clouds.6 mph61%29.92 "HgN/A
9:20 PM73 °FPassing clouds.6 mph57%29.92 "HgN/A
8:50 PM73 °FSunny.5 mph61%29.92 "Hg10 mi
8:20 PM75 °FPassing clouds.5 mph57%29.92 "HgN/A
7:50 PM77 °FPartly sunny.5 mph54%29.92 "HgN/A
7:20 PM77 °FPartly sunny.7 mph54%29.92 "HgN/A
6:50 PM77 °FScattered clouds.10 mph54%29.92 "HgN/A
6:20 PM79 °FPartly sunny.10 mph51%29.92 "HgN/A
5:50 PM77 °FBroken clouds.13 mph54%29.89 "HgN/A
5:20 PM77 °FBroken clouds.12 mph57%29.92 "HgN/A
4:50 PM77 °FBroken clouds.10 mph57%29.92 "HgN/A
4:20 PM77 °FBroken clouds.10 mph57%29.92 "HgN/A
3:50 PM77 °FBroken clouds.13 mph57%29.92 "HgN/A
3:20 PM77 °FBroken clouds.13 mph57%29.92 "HgN/A
Weather by CustomWeather, © 2014

See weather overviewHow to use our weather pages